Weather Roundup
Issued by NWS

Home | Current Version | Previous Version | Text Only | Print | Product List | Glossary On
Versions: 1 2 3 4 5 6 7 8 9 10 11 12 13 14 15 16 17 18 19 20 21 22 23 24 25 26 27 28 29 30 31 32 33 34 35 36 37 38 39 40 41 42 43 44 45 46 47 48 49 50
000
NZUS93 KARX 300010
HRRWXR

CURRENT HOURLY OBSERVATIONS ACROSS
MUCH OF THE UPPER MISSISSIPPI VALLEY
NATIONAL WEATHER SERVICE LA CROSSE WI
600 PM CST THU JAN 29 2015


...SOUTHEAST MINNESOTA...


CITY           SKY/WX    TMP DP  RH WIND       PRES   REMARKS
ROCHESTER      CLOUDY    24  16  71 NW22      30.33R WCI   9
ROCHESTER/MAYO CLOUDY    25  15  65 NW17G28   30.33R WCI  12
WINONA         CLOUDY    30  19  64 NW16G26   30.33R WCI  19
AUSTIN         MOCLDY    23  18  80 NW17G26   30.36R WCI   9
ALBERT LEA     MOCLDY    25  18  74 NW12G17   30.37R WCI  14
DODGE CENTER   CLOUDY    25  18  74 NW17G23   30.35R WCI  11
PRESTON        MOCLDY    25  17  72 NW18G30   30.31R WCI  11
OWATONNA       CLOUDY    25  18  74 NW18      30.38R WCI  11
FARIBAULT      CLOUDY    25  18  74 NW13G18   30.39R WCI  13
$$

...ELSEWHERE IN MINNESOTA...


CITY           SKY/WX    TMP DP  RH WIND       PRES   REMARKS
MINNEAPOLIS    PTCLDY    24  12  60 NW18G25   30.40R WCI  10
INTNL FALLS    CLOUDY     7  -2  66 NW14      30.43R WCI -10
DULUTH         MOCLDY    12   2  64 NW12      30.34R WCI  -2
RED WING       MOCLDY    27  14  59 NW13G23   30.36R WCI  16
REDWOOD FALLS  CLEAR     20  12  71 NW16G29   30.48R WCI   6
MANKATO        PTCLDY    23  14  68 NW16G28   30.42R WCI  10
WORTHINGTON    CLOUDY    23  18  80 N16       30.45R WCI  10
FAIRMONT       CLEAR     23  12  63 NW20G26   30.42R WCI   8
$$

...SOUTHWEST WISCONSIN...


CITY           SKY/WX    TMP DP  RH WIND       PRES   REMARKS
LA CROSSE      CLOUDY    30  17  58 N14       30.30R WCI  19
PRAIRIE DU CHI CLOUDY    32  20  60 NW12G21   30.27R WCI  23
BOSCOBEL       CLOUDY    35  21  56 NW16G28   30.25R WCI  25
LONE ROCK      CLOUDY    33  21  61 NW14G21   30.22R WCI  23
PLATTEVILLE    CLOUDY    33  25  72 W12       30.21R WCI  24
FORT MC COY    CLOUDY    29  18  62 NW15G21   30.27R WCI  18
CAMP DOUGLAS   CLOUDY    30  21  69 NW17G32   30.21R WCI  18
VIROQUA        CLOUDY    28  20  71 NW23G30   30.23R WCI  14
WIS DELLS      CLOUDY    32  19  60 NW14G28   30.18R WCI  22
$$

...ELSEWHERE IN WISCONSIN...


CITY           SKY/WX    TMP DP  RH WIND       PRES   REMARKS
MILWAUKEE      CLOUDY    35  22  58 NW13      30.12R WCI  26
MADISON        CLOUDY    33  20  58 NW10G24   30.16R WCI  25
GREEN BAY      CLOUDY    29  15  56 NW20G31   30.15R WCI  16
EAU CLAIRE     CLOUDY    25  13  60 NW20G30   30.30R WCI  11
BLACK RVR FLS  CLOUDY    29  15  55 N14G23    30.26R WCI  19
MEDFORD        CLOUDY    23  14  68 N18       30.20R WCI   9
WAUSAU         CLOUDY    26  14  60 NW15G28   30.17R WCI  14
WIS RAPIDS     CLOUDY    29  16  58 NW18G31   30.20R WCI  16
MARSHFIELD     CLOUDY    27  16  63 N18       30.20R WCI  14
RICE LAKE      CLOUDY    21  11  64 NW8G21    30.34R WCI  12
$$

...NORTHEAST IOWA...


CITY           SKY/WX    TMP DP  RH WIND       PRES   REMARKS
DECORAH        CLOUDY    28  18  64 NW17G31   30.28R WCI  16
MASON CITY     CLOUDY    24  17  74 NW23      30.40R WCI   9
CHARLES CITY   CLOUDY    27  19  74 NW18G29   30.35R WCI  13
OELWEIN        CLOUDY    30  23  74 NW26G33   30.31R WCI  16
$$

...ELSEWHERE IN IOWA...


CITY           SKY/WX    TMP DP  RH WIND       PRES   REMARKS
DES MOINES     CLOUDY    32  21  64 NW21G30   30.42R WCI  20
IOWA CITY      CLOUDY    33  22  63 NW21G31   30.33R WCI  21
FORT DODGE     CLOUDY    28  19  69 NW14G21   30.43R WCI  17
$$

...NORTHERN ILLINOIS...


CITY           SKY/WX    TMP DP  RH WIND       PRES   REMARKS
CHICAGO-OHARE  CLOUDY    34  24  67 NW13      30.14R WCI  25
CHICAGO-MIDWAY CLOUDY    37  25  61 NW20G25   30.15R WCI  27
MOLINE         CLOUDY    34  25  69 NW21G30   30.27R WCI  22
ROCKFORD       CLOUDY    35  23  61 NW14      30.20R WCI  26
PEORIA         CLOUDY    36  28  73 NW15G29   30.26R WCI  27
$$

NOTE: "FAIR" INDICATES FEW OR NO CLOUDS BELOW 12,000 FEET WITH NO
SIGNIFICANT WEATHER AND/OR OBSTRUCTIONS TO VISIBILITY. WIND
SPEEDS ARE IN MILES-PER-HOUR.



USA.gov is the U.S. government's official web portal to all federal, state and local government web resources and services.